Location: Boca de Tacagua
(10.5333°N, 66.9833°W)
Time: 18:59:54
(UTC+00:00)

XW-2D - Pass Details

Date: 02 April 2023
Orbit: 475 x 489 km, 97.5° (Epoch: 01 June)

Event Time Altitude Azimuth Distance (km) Brightness Sun altitude
Rises 23:04:43 0° 204° (SSW) 2,529 ? -7.2°
Reaches altitude 10° 23:07:47 10° 234° (SW) 1,645 ? -7.9°
Maximum altitude 23:09:22 13° 261° (W) 1,486 ? -8.3°
Drops below altitude 10° 23:10:58 10° 288° (WNW) 1,641 ? -8.7°
Sets 23:14:01 0° 318° (NW) 2,515 ? -9.5°
